4285 Weather Reports


Display with metric or nautical units.
time (UTC)temp
F
wind
direction
speed
MPH
gust
MPH
rain 1hr
in
rain 24hr
in
rain mn
in
humidity
%
barometer
mb
20260510183009 57 264 2.0 10.0 0.00 0.15 0.00 27 1017.1
20260510170020 55 250 3.0 9.0 0.00 0.15 0.00 28 1017.1
20260510164646 55 302 1.0 10.0 0.00 0.15 0.00 31 1017.1
20260510154652 54 73 2.0 9.0 0.00 0.15 0.00 31 1016.7
20260510141654 51 274 1.0 4.0 0.00 0.15 0.00 41 1015.8
20260510133146 47 288 1.0 6.0 0.00 0.15 0.00 47 1015.7
20260510111518 39 306 0.0 0.0 0.00 0.15 0.00 73 1014.2
20260510104650 39 304 0.0 0.0 0.00 0.15 0.00 75 1013.8
20260510093009 40 338 0.0 0.0 0.00 0.15 0.00 70 1012.9
20260510091511 41 338 0.0 0.0 0.00 0.15 0.00 70 1012.9
20260510090145 42 288 0.0 0.0 0.00 0.15 0.00 65 1012.7
20260510084645 43 208 0.0 1.0 0.00 0.15 0.00 65 1012.3
20260510080010 45 154 0.0 4.0 0.00 0.15 0.00 62 1011.2
20260510063014 47 80 0.0 3.0 0.00 0.15 0.00 62 1009.8
20260510051515 49 44 0.0 0.0 0.00 0.15 0.00 63 1008.6
20260510043017 51 285 0.0 0.0 0.00 0.15 0.00 60 1007.9
20260510040003 53 235 0.0 1.0 0.00 0.15 0.00 55 1007.6
20260510033150 55 331 0.0 3.0 0.00 0.15 0.15 52 1007.2
20260510030006 56 352 0.0 4.0 0.00 0.15 0.15 49 1006.8
20260510023152 58 154 0.0 7.0 0.00 0.15 0.15 45 1006.4
20260510014656 61 328 2.0 8.0 0.00 0.15 0.15 48 1004.8
20260510011513 60 277 0.0 2.0 0.00 0.15 0.15 50 1003.8
20260510010149 61 256 0.0 2.0 0.00 0.15 0.15 48 1003.5
20260510003008 63 293 0.0 8.0 0.00 0.15 0.15 43 1002.9
20260510001646 64 245 4.0 8.0 0.00 0.15 0.15 42 1002.7
20260510000157 65 273 4.0 9.0 0.00 0.15 0.15 39 1002.5
20260509231646 67 284 4.0 17.0 0.00 0.15 0.15 38 1002.3
20260509213012 68 273 8.0 21.0 0.00 0.15 0.15 34 1000.8